Temperature
22 22 22 22 21 21 20 20 20 19 19 19 19 19 18 18 18 18 18 18 18 18 18 18 18 17 17 17 17 17 17 17 17 17 17 17 17 17 17 17 17 17 17
22 22 22 22 21 21 21 20 20 19 19 19 19 19 18 18 18 18 18 18 18 18 18 18 18 18 17 17 17 17 17 17 17 17 17 17 17 18 17 17 17 17 17
22 22 22 22 21 21 21 20 20 20 19 19 19 19 18 18 18 18 18 18 18 18 17 17 18 18 17 17 17 17 17 17 17 17 17 17 17 17 17 17 17 17 17
22 22 22 22 22 21 21 20 20 20 19 19 19 19 19 18 18 18 18 18 18 17 17 17 18 18 18 17 17 17 17 17 17 17 17 17 17 17 17 17 17 17 17
22 22 22 22 22 21 21 20 20 20 20 19 19 19 18 18 18 18 18 18 18 17 17 17 17 17 17 17 17 17 17 17 17 17 17 17 17 17 16 17 17 17 17
22 22 22 22 22 21 21 20 20 20 20 19 19 19 19 18 18 18 18 18 18 18 17 17 17 17 17 17 17 17 17 17 17 17 17 17 16 16 16 16 16 16 17
23 22 22 22 22 21 21 20 20 20 19 19 19 19 18 18 18 18 18 18 18 18 17 17 17 17 17 17 17 17 17 17 17 17 17 17 17 16 16 16 16 16 16
23 22 22 22 22 21 21 20 20 20 19 19 19 19 18 18 18 18 18 18 18 18 17 17 17 17 17 17 17 17 17 16 16 16 16 16 16 16 16 16 16 15 15
22 22 22 22 22 21 21 20 20 20 19 19 19 19 18 18 18 18 17 17 17 17 17 17 17 17 17 17 17 17 16 16 16 16 16 16 16 16 16 16 15 15 15
22 22 22 22 22 21 21 20 20 19 19 19 19 19 18 18 18 17 17 17 17 17 17 17 17 17 17 16 16 16 16 16 16 16 16 16 16 15 15 15 15 15 15
22 22 22 22 22 21 21 20 20 19 19 19 18 18 18 18 17 17 17 17 17 17 17 17 16 16 16 16 16 16 16 16 15 15 15 15 15 15 15 15 15 15 15
22 22 22 22 21 21 21 20 20 19 19 18 18 18 18 18 17 17 17 17 17 17 16 16 16 16 16 16 16 16 15 15 15 15 15 15 15 15 15 15 14 14 14
21 21 21 21 21 21 20 20 20 19 19 18 18 18 18 17 17 17 17 17 16 16 16 16 16 15 15 15 15 15 15 15 15 14 14 14 14 14 14 14 14 14 14
21 21 21 21 21 20 20 20 20 19 19 18 18 18 17 17 17 17 16 16 16 16 16 15 15 15 15 15 15 15 15 14 14 14 14 14 14 14 14 14 14 14 13
20 21 21 21 20 20 20 20 19 19 18 18 18 17 17 17 16 16 16 16 16 15 15 15 15 15 15 14 14 14 14 14 14 14 13 13 13 13 13 13 13 13 13
20 20 20 20 20 20 20 19 19 19 18 18 18 17 17 16 16 16 16 15 15 15 15 15 14 14 14 14 14 14 14 14 13 13 13 13 13 13 13 13 12 12 12
21 21 20 20 20 20 20 19 19 18 18 18 17 17 16 16 16 15 15 15 15 14 14 14 14 14 14 13 13 13 13 13 13 13 12 12 12 12 12 12 12 12 12
21 21 20 20 20 20 19 19 18 18 18 17 17 16 16 16 15 15 15 15 14 14 14 13 13 13 13 13 13 12 12 12 12 12 12 12 12 11 12 12 12 11 11
22 21 21 20 20 20 19 19 18 18 17 17 16 16 16 15 15 15 15 14 14 14 13 13 13 13 12 12 12 12 12 12 12 11 11 11 11 11 11 11 11 11 11
21 21 21 20 20 19 19 19 18 18 17 17 16 16 16 15 15 14 14 14 14 13 13 13 12 12 12 11 11 11 11 11 11 11 11 10 10 10 10 11 11 10 10
21 21 20 20 20 19 19 18 18 18 17 17 16 15 15 15 14 14 14 13 13 13 13 12 12 11 11 11 11 11 11 11 11 10 10 10 10 10 10 10 10 9 9
21 21 20 20 19 19 18 18 17 17 17 16 16 15 15 14 14 14 13 13 13 12 12 12 11 11 11 11 11 10 10 10 10 10 10 9 9 9 9 9 9 9 9
20 20 20 19 19 18 18 18 17 17 16 16 15 15 15 14 14 13 13 13 12 12 12 11 11 11 11 10 10 10 10 10 10 10 9 9 9 9 9 9 9 9 9
20 19 19 19 19 18 18 17 17 16 16 15 15 15 14 14 13 13 13 12 12 12 11 11 11 11 10 10 10 10 10 9 9 9 9 9 9 9 9 8 8 8 8
19 19 19 19 18 18 17 17 16 16 15 15 15 14 14 13 13 13 12 12 12 11 11 11 11 10 10 10 10 9 9 9 9 9 9 9 9 8 8 8 8 8 8
19 18 18 18 18 17 17 16 16 15 15 15 14 14 13 13 13 12 12 11 11 11 11 10 10 10 10 10 9 9 9 9 9 9 9 8 8 8 8 8 7 7 7
Wind_Speed
5 5 6 7 7 7 7 7 6 5 5 3 3 2 2 2 2 3 5 6 7 6 6 4 4 4 4 4 3 2 2 1 1 1 1 2 2 3 4 5 6 7 10
5 5 6 6 7 7 7 6 6 6 5 4 3 2 2 2 2 2 3 6 6 6 6 5 4 4 4 3 3 3 2 2 2 2 1 2 2 2 3 4 5 6 7
9 7 7 7 7 7 7 7 6 6 5 5 3 2 2 1 0 1 1 2 5 5 5 5 4 4 4 4 5 5 5 3 2 2 3 2 3 2 2 3 4 4 4
8 8 8 8 8 7 6 5 5 5 4 4 4 4 3 3 2 2 1 1 3 4 5 5 5 4 4 4 5 5 4 4 3 2 2 2 2 2 2 2 2 3 4
8 9 9 9 8 7 6 5 5 4 4 4 5 4 3 2 1 0 0 1 1 2 3 3 3 3 4 4 4 4 4 4 4 3 2 2 2 3 3 3 2 1 2
8 7 7 6 6 5 5 5 5 4 4 5 5 5 4 2 1 1 1 1 1 1 1 2 2 3 3 4 4 4 4 4 4 4 3 3 3 3 4 5 4 3 2
9 8 8 8 8 7 6 5 5 4 4 4 4 4 4 3 3 2 1 1 1 1 1 0 1 1 2 2 2 2 3 3 4 4 3 4 4 3 3 4 3 3 2
8 9 8 8 8 8 7 6 5 4 4 4 3 3 3 2 2 1 1 1 1 1 0 0 0 1 1 1 1 1 1 1 3 3 3 3 3 3 3 3 3 3 2
8 8 8 7 7 7 6 6 5 4 4 4 3 3 3 2 2 1 1 0 0 0 1 1 1 1 1 1 2 1 0 0 1 1 2 2 2 2 3 3 3 3 3
7 8 8 8 7 6 6 5 6 4 3 3 3 2 2 2 2 2 1 1 1 2 2 3 3 3 3 3 2 2 1 1 1 0 1 1 1 2 2 2 2 3 3
9 8 7 7 7 6 6 6 5 5 4 3 3 3 3 3 3 3 2 2 2 3 3 4 4 4 3 3 3 2 2 2 2 2 2 2 2 2 1 1 0 1 2
7 7 7 7 7 7 7 6 6 5 4 4 4 4 4 4 4 4 3 3 4 4 4 4 5 4 4 4 3 3 3 3 3 3 3 3 3 3 2 1 0 0 1
7 6 7 7 7 6 6 6 6 5 4 5 5 5 5 5 4 4 4 4 5 5 5 5 5 5 5 4 4 4 4 4 4 4 4 4 3 4 3 2 1 1 1
8 8 7 6 6 6 6 6 6 5 6 6 6 6 5 5 5 5 5 5 5 5 5 5 5 4 4 4 4 5 5 5 5 5 5 5 4 4 3 3 3 2 3
8 9 8 8 7 6 6 6 6 6 6 7 7 6 6 6 6 6 5 6 6 6 5 6 5 5 4 5 5 5 6 6 6 6 6 6 8 9 6 5 4 4 3
9 9 8 8 8 7 7 7 6 6 7 7 7 7 6 6 6 6 6 6 7 6 7 7 6 7 6 8 9 7 6 7 7 7 7 7 9 11 12 12 11 9 6
9 10 10 9 8 8 8 7 6 6 7 7 7 7 7 6 6 6 6 7 6 7 7 7 7 8 8 10 10 11 7 7 7 7 6 6 7 8 8 10 12 13 13
9 9 9 9 8 7 8 8 8 7 7 7 6 6 7 7 6 6 6 6 5 6 6 7 7 7 8 9 10 11 9 8 8 7 7 7 7 7 7 8 10 10 10
8 8 9 8 8 9 9 9 8 7 7 6 6 6 6 7 7 6 6 5 6 6 6 6 7 7 7 9 10 9 7 8 9 8 8 7 7 8 9 9 9 9 8
7 8 8 8 9 8 9 10 9 8 7 6 6 6 7 8 7 6 5 5 6 6 6 7 6 6 6 8 9 9 6 7 7 7 8 10 9 9 9 8 8 8 6
8 9 9 9 8 8 9 9 9 8 7 7 7 7 7 7 7 6 5 6 6 6 7 7 6 6 6 8 9 9 6 6 6 6 6 6 10 11 11 9 7 6 5
8 9 9 8 8 9 9 8 8 7 8 8 8 7 6 6 7 7 6 6 6 7 6 6 6 5 5 6 7 9 8 7 7 5 4 6 10 12 11 9 8 9 8
8 8 10 9 7 8 9 9 8 8 9 9 8 7 7 6 6 7 7 5 5 5 4 4 4 4 4 5 7 8 8 8 6 5 7 8 10 10 9 10 10 8 6
8 8 9 9 7 7 7 8 9 9 9 9 8 7 7 6 6 5 5 5 4 4 4 4 4 3 3 3 3 3 4 6 5 5 7 9 11 9 8 7 7 6 5
7 8 9 9 8 7 7 8 9 9 9 9 8 7 6 7 6 5 4 3 2 3 4 3 4 4 2 0 1 3 3 3 3 4 4 5 5 5 5 5 5 5 5
6 7 8 8 8 8 8 8 8 9 10 9 8 6 6 6 6 6 5 8 5 5 5 5 5 2 3 4 4 5 5 5 6 6 4 3 3 3 3 3 3 3 3
Wind_Direction
195 170 171 168 164 169 175 181 177 177 163 157 170 182 207 213 212 216 220 225 226 218 206 206 197 191 198 211 206 199 201 215 179 144 319 308 258 233 232 228 226 229 231
170 168 163 162 170 176 180 179 183 182 183 180 175 176 178 205 214 223 224 224 223 218 216 210 204 198 194 206 206 192 192 220 182 163 148 315 319 284 240 225 228 236 231
184 180 174 176 174 180 184 186 185 185 188 175 144 114 90 56 73 245 241 233 227 221 217 213 210 200 195 207 212 201 197 210 207 183 166 180 239 287 289 239 231 230 227
186 183 180 179 182 187 181 180 177 178 178 168 163 166 179 202 216 212 222 251 232 225 224 221 219 210 205 212 220 208 205 198 214 209 205 204 184 202 284 291 251 231 235
188 186 184 183 180 173 169 174 170 174 171 171 174 173 191 210 210 167 233 260 265 239 235 229 223 217 213 219 223 209 207 208 211 208 195 204 216 213 218 262 276 260 248
182 181 174 160 159 156 159 164 168 178 175 175 174 179 193 194 181 213 246 267 275 279 263 227 219 218 217 221 225 216 209 214 220 220 211 199 200 207 209 232 250 260 265
172 170 167 165 165 164 167 166 168 181 177 173 179 186 190 183 196 211 220 230 244 263 275 224 219 233 233 230 222 214 219 216 223 226 227 224 230 218 206 221 241 253 266
170 171 174 172 170 166 163 161 167 177 172 172 178 179 177 174 188 194 201 229 244 260 322 102 176 278 274 260 206 208 228 228 234 241 237 239 244 231 220 215 216 248 262
167 169 165 163 162 158 162 167 164 171 168 165 155 145 156 162 166 163 151 295 311 27 54 80 79 45 52 73 98 96 89 171 226 243 241 249 255 244 240 234 222 223 255
158 164 161 157 157 155 155 151 151 161 146 139 145 139 131 136 127 108 96 77 49 53 60 61 70 65 60 63 80 68 53 67 13 341 307 295 287 275 261 247 241 230 230
161 161 152 147 147 144 140 138 135 132 129 128 117 109 107 105 100 94 83 72 60 59 64 69 68 61 52 53 67 60 48 50 28 17 21 355 346 326 311 293 232 213 210
149 144 140 142 143 143 139 137 134 136 138 128 114 106 100 96 92 86 76 75 71 66 70 73 72 64 54 54 65 64 58 58 43 25 28 14 9 5 -0 20 33 206 196
141 138 140 142 145 144 138 135 135 135 127 120 114 104 95 92 88 81 76 76 79 75 72 73 70 62 55 55 60 67 67 60 50 40 36 22 23 24 23 30 35 37 77
152 150 147 144 145 141 137 133 131 129 126 121 117 111 102 95 86 77 74 74 80 80 75 71 69 67 62 57 59 65 67 64 55 48 43 38 35 36 32 40 39 59 73
162 158 155 150 145 135 130 129 130 129 128 125 118 113 105 97 89 78 73 72 74 76 73 71 64 58 60 57 59 65 69 66 60 51 44 49 54 52 52 60 58 67 76
169 159 152 151 150 146 143 138 137 136 129 127 125 116 107 98 90 84 79 77 72 70 69 65 62 59 59 57 65 75 71 68 65 57 47 49 50 54 57 62 64 67 72
168 163 159 160 158 151 146 145 137 128 125 126 127 122 114 104 96 92 85 81 76 73 70 64 64 63 55 59 69 72 75 71 62 56 51 54 50 52 59 61 59 55 54
166 164 161 161 153 144 138 135 129 129 125 123 122 121 116 111 104 97 92 87 83 79 75 67 64 64 55 64 75 77 74 71 61 56 54 57 51 54 67 71 65 56 48
163 161 160 153 147 146 144 140 136 133 130 132 131 129 126 120 113 108 104 97 91 81 74 69 66 66 55 61 73 76 74 69 58 49 49 55 58 53 71 78 74 63 49
147 146 141 133 140 148 144 142 144 144 149 149 140 133 128 124 121 119 111 100 98 93 86 72 62 65 60 60 70 74 79 73 63 51 45 50 59 60 68 77 77 70 50
143 141 136 138 144 144 143 147 150 157 151 136 125 120 120 122 122 116 110 110 105 97 88 80 63 55 55 61 65 69 79 85 77 65 52 47 57 62 64 69 72 78 78
139 139 138 138 140 144 143 150 154 149 136 129 126 123 123 126 124 119 111 110 113 105 96 88 71 51 45 57 69 72 77 86 86 76 64 61 65 65 63 64 67 71 72
143 139 139 138 141 148 151 154 151 142 134 129 128 126 120 114 122 125 124 116 113 114 109 101 90 65 48 50 62 71 77 80 84 81 77 72 68 65 61 58 60 63 65
140 138 137 142 147 150 147 148 145 142 136 135 134 133 128 122 114 114 123 128 133 131 127 122 114 94 65 51 48 61 74 75 78 75 69 68 65 62 55 51 50 52 57
142 144 149 153 155 150 143 143 146 145 141 139 138 136 132 130 121 107 96 120 125 151 151 154 147 138 126 149 117 113 97 97 103 97 71 61 57 54 49 49 46 44 48
144 146 149 153 153 150 147 148 150 149 146 145 146 146 142 138 135 125 95 63 79 90 110 134 139 127 138 133 112 104 100 100 111 98 86 80 75 73 63 55 46 42 42
Height
1538 1540 1542 1545 1547 1549 1551 1552 1554 1555 1556 1558 1559 1559 1560 1561 1561 1562 1563 1563 1564 1565 1566 1566 1568 1569 1569 1570 1571 1572 1572 1573 1573 1573 1573 1573 1573 1573 1573 1574 1574 1575 1575
1536 1538 1541 1543 1545 1547 1549 1551 1552 1554 1555 1557 1557 1558 1559 1559 1560 1560 1560 1561 1562 1563 1564 1565 1566 1567 1568 1568 1569 1570 1570 1570 1571 1571 1571 1571 1571 1570 1571 1571 1572 1572 1573
1533 1536 1538 1540 1543 1545 1547 1549 1551 1553 1554 1555 1556 1557 1558 1558 1558 1559 1559 1560 1561 1561 1562 1563 1564 1565 1565 1566 1567 1568 1568 1568 1569 1569 1570 1569 1568 1568 1569 1569 1569 1570 1570
1531 1533 1536 1538 1541 1543 1546 1548 1549 1551 1553 1554 1555 1555 1556 1556 1557 1557 1558 1559 1559 1560 1561 1562 1562 1563 1563 1564 1564 1565 1565 1566 1566 1566 1567 1568 1567 1567 1566 1566 1566 1567 1567
1528 1531 1534 1536 1539 1542 1544 1547 1548 1550 1551 1552 1553 1554 1554 1555 1556 1556 1556 1557 1558 1558 1559 1560 1560 1560 1561 1561 1562 1562 1562 1563 1563 1563 1564 1564 1564 1564 1564 1563 1563 1563 1564
1526 1529 1532 1535 1538 1541 1543 1545 1547 1548 1549 1551 1552 1552 1553 1554 1554 1555 1555 1556 1556 1556 1557 1557 1558 1558 1558 1558 1559 1559 1559 1559 1560 1560 1561 1560 1560 1560 1560 1560 1560 1559 1560
1523 1527 1530 1532 1536 1539 1541 1543 1545 1547 1548 1549 1550 1551 1551 1552 1553 1553 1554 1554 1554 1554 1555 1555 1556 1556 1556 1556 1556 1556 1556 1556 1557 1557 1557 1557 1557 1557 1557 1556 1556 1555 1555
1521 1525 1528 1531 1534 1537 1539 1542 1544 1545 1547 1548 1549 1549 1550 1550 1551 1552 1552 1553 1553 1553 1553 1553 1553 1554 1554 1553 1553 1553 1553 1553 1553 1554 1553 1553 1553 1553 1552 1552 1552 1551 1551
1520 1523 1527 1530 1533 1536 1538 1541 1542 1544 1545 1547 1547 1547 1548 1549 1549 1550 1551 1551 1551 1551 1551 1551 1552 1552 1551 1551 1551 1551 1551 1550 1550 1550 1550 1550 1549 1549 1548 1548 1548 1549 1547
1518 1522 1525 1528 1532 1535 1537 1540 1541 1543 1544 1546 1546 1546 1547 1547 1548 1549 1549 1549 1550 1550 1550 1550 1550 1550 1550 1549 1549 1548 1548 1548 1548 1547 1547 1546 1546 1545 1545 1544 1544 1544 1544
1517 1520 1524 1527 1531 1534 1536 1538 1540 1542 1543 1544 1545 1546 1546 1547 1548 1548 1548 1549 1549 1549 1549 1548 1548 1548 1548 1548 1547 1546 1546 1546 1545 1545 1544 1543 1543 1542 1542 1541 1541 1541 1541
1516 1520 1523 1527 1529 1532 1535 1537 1539 1541 1542 1543 1544 1545 1546 1547 1547 1547 1547 1548 1548 1548 1548 1547 1547 1547 1546 1546 1545 1544 1544 1544 1543 1542 1542 1541 1541 1540 1539 1539 1538 1538 1538
1516 1519 1523 1525 1528 1531 1534 1536 1538 1540 1541 1543 1544 1545 1546 1546 1546 1547 1547 1547 1547 1547 1547 1547 1546 1546 1545 1545 1544 1544 1543 1542 1542 1541 1540 1539 1539 1538 1537 1537 1537 1536 1536
1515 1519 1522 1525 1528 1531 1533 1536 1537 1539 1541 1542 1544 1545 1545 1546 1546 1547 1547 1547 1547 1547 1547 1547 1546 1546 1545 1544 1544 1543 1542 1542 1541 1540 1539 1539 1538 1537 1536 1536 1535 1535 1535
1514 1517 1520 1524 1528 1531 1533 1535 1538 1539 1540 1542 1544 1545 1546 1546 1547 1547 1547 1547 1547 1547 1547 1547 1547 1546 1545 1544 1544 1543 1542 1541 1541 1540 1540 1539 1538 1537 1536 1536 1535 1535 1535
1513 1516 1519 1523 1527 1530 1533 1535 1538 1539 1540 1542 1544 1545 1546 1547 1547 1548 1548 1548 1548 1548 1548 1547 1547 1546 1545 1545 1544 1543 1542 1542 1541 1540 1540 1539 1539 1538 1537 1537 1536 1536 1536
1512 1515 1519 1523 1526 1529 1532 1535 1538 1539 1541 1542 1544 1546 1547 1547 1548 1548 1549 1548 1548 1548 1548 1548 1548 1547 1546 1545 1544 1544 1543 1542 1542 1541 1541 1540 1540 1540 1539 1538 1538 1537 1537
1511 1515 1519 1522 1526 1529 1532 1535 1538 1540 1541 1542 1544 1545 1546 1548 1548 1549 1549 1549 1549 1549 1549 1549 1548 1548 1547 1546 1546 1545 1545 1544 1543 1543 1543 1542 1541 1541 1541 1540 1540 1539 1538
1510 1514 1518 1522 1525 1529 1532 1535 1537 1539 1541 1543 1544 1545 1546 1548 1548 1549 1549 1549 1549 1549 1549 1549 1549 1549 1548 1548 1548 1547 1546 1545 1545 1545 1545 1544 1544 1543 1543 1542 1541 1541 1540
1510 1514 1518 1521 1524 1528 1531 1534 1536 1538 1540 1542 1544 1545 1546 1547 1548 1549 1550 1550 1550 1550 1550 1550 1550 1550 1550 1550 1550 1549 1549 1548 1547 1547 1547 1547 1546 1546 1545 1544 1543 1542 1542
1510 1513 1517 1520 1524 1528 1530 1532 1535 1537 1540 1542 1543 1544 1546 1547 1548 1549 1550 1550 1551 1551 1551 1551 1552 1552 1552 1552 1551 1551 1551 1550 1550 1549 1549 1549 1549 1548 1547 1546 1545 1545 1545
1509 1512 1515 1519 1523 1527 1530 1532 1533 1536 1539 1540 1542 1544 1545 1546 1547 1549 1550 1551 1551 1552 1552 1552 1552 1553 1553 1553 1553 1553 1553 1553 1552 1551 1551 1551 1551 1550 1549 1549 1548 1548 1547
1507 1511 1515 1518 1522 1525 1528 1531 1533 1535 1537 1539 1542 1543 1545 1546 1547 1548 1550 1551 1552 1552 1553 1553 1553 1554 1554 1555 1555 1555 1555 1555 1554 1554 1554 1554 1553 1553 1552 1551 1551 1550 1549
1507 1511 1514 1517 1521 1524 1527 1530 1533 1535 1536 1538 1540 1542 1544 1545 1547 1548 1550 1551 1552 1553 1553 1554 1554 1555 1555 1556 1556 1556 1556 1556 1556 1556 1556 1556 1555 1555 1554 1553 1553 1552 1552
1507 1511 1514 1517 1520 1523 1526 1529 1531 1533 1535 1537 1539 1541 1543 1545 1546 1547 1549 1551 1552 1553 1554 1554 1555 1555 1556 1556 1557 1557 1557 1558 1558 1558 1557 1557 1557 1556 1556 1555 1554 1554 1553
1507 1510 1513 1516 1519 1522 1524 1527 1529 1532 1533 1535 1538 1540 1542 1544 1545 1546 1548 1550 1551 1553 1554 1555 1555 1556 1557 1557 1558 1558 1559 1559 1559 1559 1558 1558 1558 1557 1557 1557 1556 1555 1555